Weather History for Houghton, MI

Change the Weather History Date:

Wednesday, May 22, 2013

  Actual Average Record
Temperature  
Mean Temperature 48 °F -  
Max Temperature 55 °F 66 °F 94 °F (1964)
Min Temperature 41 °F 43 °F 27 °F (1963)
Degree Days  
Heating Degree Days 16    
Moisture  
Dew Point 44 °F    
Average Humidity 90    
Maximum Humidity 100    
Minimum Humidity 55    
Precipitation  
Precipitation 0.31 in - - ()
Sea Level Pressure  
Sea Level Pressure 29.85 in    
Wind  
Wind Speed 10 mph (NE)    
Max Wind Speed 23 mph    
Max Gust Speed 34 mph    
Visibility 4 miles    
Events Fog , Rain    
Averages and records for this station are not official NWS values.
T = Trace of Precipitation, MM = Missing Value Source: NWS Daily Summary

Daily Weather History Graph

Daily Weather History Graph

Search for Another Location

Airport:

Trip Planner

Search our weather history database for the weather conditions in past years. The results will help you decide how hot, cold, wet, or windy it might be!

Date:

Astronomy

May. 22, 2013 Rise Set
Actual Time 6:09 AM EDT 9:32 PM EDT
Civil Twilight 5:32 AM EDT 10:09 PM EDT
Nautical Twilight 4:43 AM EDT 10:58 PM EDT
Astronomical Twilight 3:40 AM EDT 12:02 AM EDT
Moon 6:45 PM EDT (5/22) 4:25 AM EDT (5/22)
Length of Visible Light 16h 36m
Length of Day
15h 22m
Waxing Gibbous, 91% of the Moon is Illuminated
May 22
Waxing Gibbous
May 25
Full
May 31
Last Quarter
Jun 8
New
Jun 16
First Quarter

Hourly Weather History & Observations

Time (EDT) Temp. Windchill Dew Point Humidity Pressure Visibility Wind Dir Wind Speed Gust Speed Precip Events Conditions
12:26 AM 46.4 °F 41.5 °F 44.6 °F 93% 29.78 in 1.8 mi ENE 10.4 mph - N/A   Overcast
12:53 AM 46.0 °F 40.6 °F 45.0 °F 96% 29.80 in 1.8 mi ENE 11.5 mph - N/A   Overcast
1:10 AM 46.4 °F 41.9 °F 44.6 °F 93% 29.78 in 2.0 mi ENE 9.2 mph 17.3 mph 0.00 in Rain Light Rain
1:53 AM 46.0 °F 41.0 °F 45.0 °F 96% 29.80 in 2.0 mi ENE 10.4 mph - 0.01 in   Overcast
2:44 AM 46.4 °F 42.4 °F 44.6 °F 93% 29.78 in 1.8 mi East 8.1 mph 17.3 mph N/A   Overcast
2:53 AM 46.0 °F 41.0 °F 45.0 °F 96% 29.80 in 1.8 mi ENE 10.4 mph - N/A   Overcast
3:04 AM 46.4 °F 41.9 °F 44.6 °F 93% 29.78 in 2.0 mi NE 9.2 mph - N/A   Overcast
3:53 AM 45.0 °F 40.1 °F 44.1 °F 97% 29.80 in 2.5 mi ENE 9.2 mph - N/A   Overcast
4:29 AM 44.6 °F 40.2 °F 44.6 °F 100% 29.78 in 1.8 mi ENE 8.1 mph - 0.00 in   Overcast
4:53 AM 45.0 °F 40.6 °F 44.1 °F 97% 29.81 in 1.5 mi ENE 8.1 mph - 0.00 in   Overcast
5:53 AM 45.0 °F 40.1 °F 44.1 °F 97% 29.80 in 1.2 mi ENE 9.2 mph - N/A   Overcast
6:46 AM 44.6 °F 40.2 °F 44.6 °F 100% 29.79 in 0.8 mi ENE 8.1 mph - N/A   Overcast
6:53 AM 45.0 °F 40.1 °F 44.1 °F 97% 29.81 in 0.5 mi NE 9.2 mph - N/A Fog Fog
7:53 AM 45.0 °F 39.7 °F 45.0 °F 100% 29.81 in 0.8 mi ENE 10.4 mph - N/A   Overcast
8:11 AM 44.6 °F 39.2 °F 44.6 °F 100% 29.79 in 1.0 mi NE 10.4 mph - N/A   Overcast
8:53 AM 46.0 °F 41.4 °F 45.0 °F 96% 29.82 in 1.0 mi ENE 9.2 mph - N/A   Overcast
9:05 AM 46.4 °F 41.9 °F 44.6 °F 93% 29.80 in 0.8 mi ENE 9.2 mph - N/A   Overcast
9:53 AM 46.0 °F 41.9 °F 45.0 °F 96% 29.85 in 0.8 mi ENE 8.1 mph - N/A   Overcast
10:31 AM 46.4 °F 41.5 °F 44.6 °F 93% 29.83 in 1.0 mi ENE 10.4 mph - 0.01 in   Overcast
10:53 AM 46.0 °F 40.6 °F 45.0 °F 96% 29.85 in 1.8 mi NE 11.5 mph - 0.01 in   Overcast
11:28 AM 46.4 °F 42.4 °F 44.6 °F 93% 29.83 in 3.0 mi NE 8.1 mph - 0.00 in Rain Light Rain
11:53 AM 46.0 °F 41.4 °F 45.0 °F 96% 29.85 in 5.0 mi ENE 9.2 mph - 0.00 in   Overcast
12:50 PM 46.4 °F 41.9 °F 46.4 °F 100% 29.83 in 2.0 mi NE 9.2 mph - 0.01 in Rain Light Rain
12:53 PM 46.9 °F - 46.0 °F 97% 29.86 in 2.0 mi ENE 6.9 mph - 0.01 in Rain Light Rain
1:03 PM 46.4 °F 41.5 °F 46.4 °F 100% 29.83 in 3.0 mi NE 10.4 mph - 0.00 in Rain Light Rain
1:43 PM 46.4 °F 41.9 °F 44.6 °F 93% 29.84 in 2.0 mi ENE 9.2 mph - 0.02 in Rain Light Rain
1:53 PM 46.9 °F - 45.0 °F 93% 29.86 in 1.8 mi ENE 10.4 mph - 0.03 in Rain Light Rain
2:25 PM 46.4 °F 41.5 °F 44.6 °F 93% 29.84 in 2.0 mi ENE 10.4 mph - 0.07 in Rain Rain
2:39 PM 46.4 °F 41.5 °F 46.4 °F 100% 29.84 in 3.0 mi ENE 10.4 mph - 0.09 in Rain Light Rain
2:53 PM 48.0 °F - 46.0 °F 93% 29.87 in 4.0 mi NE 11.5 mph 16.1 mph 0.10 in Rain Light Rain
3:45 PM 48.2 °F - 44.6 °F 87% 29.86 in 2.5 mi ENE 10.4 mph - 0.06 in Rain Rain
3:53 PM 48.9 °F - 45.0 °F 86% 29.88 in 3.0 mi NE 11.5 mph - 0.07 in Rain Light Rain
4:00 PM 48.2 °F - 44.6 °F 87% 29.86 in 4.0 mi ENE 10.4 mph - 0.02 in Rain Light Rain
4:28 PM 50.0 °F - 46.4 °F 87% 29.86 in 8.0 mi NE 6.9 mph - 0.06 in Rain Light Rain
4:53 PM 51.1 °F - 46.0 °F 83% 29.88 in 10.0 mi NE 5.8 mph - 0.08 in Rain Light Rain
5:01 PM 51.8 °F - 46.4 °F 82% 29.86 in 10.0 mi NE 8.1 mph - 0.00 in Rain Light Rain
5:53 PM 53.1 °F - 42.1 °F 66% 29.88 in 10.0 mi NE 9.2 mph - 0.00 in   Overcast
6:53 PM 55.0 °F - 39.0 °F 55% 29.89 in 10.0 mi NE 11.5 mph - N/A   Overcast
7:53 PM 54.0 °F - 37.9 °F 55% 29.92 in 10.0 mi NNE 16.1 mph 23.0 mph N/A   Overcast
8:53 PM 51.1 °F - 39.0 °F 63% 29.94 in 10.0 mi NNE 16.1 mph 27.6 mph N/A   Overcast
9:53 PM 45.0 °F 36.4 °F 37.0 °F 74% 29.97 in 10.0 mi NNE 23.0 mph 31.1 mph N/A   Clear
10:53 PM 42.1 °F 33.6 °F 35.1 °F 76% 30.01 in 10.0 mi NE 18.4 mph 34.5 mph N/A   Clear
11:53 PM 41.0 °F 31.9 °F 34.0 °F 76% 30.03 in 10.0 mi NE 19.6 mph 32.2 mph N/A   Clear